SCP
0 0 0 0 0 0 0 0 0 0 1 1 1 1 2 1 1 1 1 1 2 2 3 4 5 4 2 2 1 1 1 1 2 2 2 1 1 1 1 1 1 1 1 1
0 0 0 0 0 0 0 0 0 0 1 1 1 1 2 1 1 1 1 1 2 3 3 4 5 4 3 2 2 1 1 1 2 2 2 2 1 1 1 1 1 1 1 1
0 0 0 0 0 0 0 0 0 0 1 1 1 1 1 1 1 1 1 1 2 3 3 4 5 4 3 3 2 2 1 1 2 3 3 3 2 2 1 1 1 0 1 1
0 0 0 0 0 0 0 0 0 0 0 0 1 1 1 1 1 1 1 1 2 2 3 4 5 4 3 3 3 2 2 1 2 3 4 4 3 2 1 1 1 1 0 1
0 0 0 0 0 0 0 0 0 0 0 0 0 0 1 1 1 1 1 1 1 2 3 3 4 4 4 3 3 3 2 2 2 3 4 4 4 3 2 2 1 1 0 0
0 0 0 0 0 0 0 0 0 0 0 0 0 0 1 1 1 1 1 1 2 2 3 3 4 4 4 4 3 3 3 3 3 3 4 4 3 3 3 3 2 1 1 1
0 0 0 0 0 0 0 0 0 0 0 0 0 0 0 1 1 2 2 2 3 3 3 4 4 4 5 4 4 4 4 4 4 4 4 4 4 3 3 3 2 2 2 2
0 0 0 0 0 0 0 0 0 0 0 0 0 0 1 1 2 3 3 3 3 4 4 4 4 4 5 4 4 4 5 5 5 6 6 5 4 4 3 3 3 2 2 3
0 0 0 0 0 0 0 0 0 0 0 0 0 0 1 1 2 2 3 3 3 4 4 4 3 4 4 4 5 5 5 4 5 5 6 6 5 4 4 3 3 3 4 4
0 0 0 0 0 0 0 0 0 0 0 0 0 1 1 1 2 2 2 3 3 3 3 4 4 4 4 5 6 5 4 4 4 4 5 5 5 5 4 4 4 4 5 6
0 0 0 0 0 0 0 0 0 0 0 0 0 0 1 1 2 3 4 4 4 3 3 4 4 4 4 5 6 5 4 4 4 4 4 4 5 5 5 5 5 5 6 6
0 0 0 0 0 0 0 0 0 0 0 0 0 1 2 3 4 5 6 6 6 5 5 6 5 4 4 5 5 5 5 5 5 5 5 5 5 6 7 7 6 6 6 6
0 0 0 0 0 0 0 0 0 0 0 0 0 1 3 5 7 7 7 7 7 7 8 7 6 5 5 6 7 6 6 7 8 7 7 7 7 8 9 9 9 7 7 6
0 0 0 0 0 0 0 0 0 0 0 0 0 1 3 6 7 7 6 6 7 7 8 7 7 6 7 9 9 8 8 10 11 12 11 10 10 10 11 12 11 8 7 6
0 0 0 0 0 0 0 0 0 0 0 0 1 2 3 5 6 6 6 5 6 6 6 6 7 7 7 8 8 8 8 9 11 13 13 12 11 10 12 13 12 9 6 4
0 0 0 0 0 0 0 0 0 0 0 1 1 2 3 4 5 5 5 4 5 5 5 5 6 6 6 6 8 8 7 7 9 10 10 9 9 10 13 15 13 9 5 3
0 0 0 0 0 0 0 0 1 1 1 1 2 2 3 4 4 4 3 3 4 5 5 5 5 6 6 6 7 7 6 6 7 8 8 7 8 11 15 16 13 8 4 2
0 0 0 0 0 0 0 1 1 1 1 2 2 3 3 4 3 3 2 3 4 5 6 6 6 6 6 5 5 5 5 6 7 8 8 8 10 14 18 16 12 6 3 2
0 0 0 0 0 0 1 1 1 1 1 2 3 4 4 4 4 3 3 4 5 6 7 8 7 7 7 6 6 6 6 7 8 9 9 9 13 18 20 15 9 4 2 2
0 0 0 0 0 0 1 1 1 1 1 2 2 3 4 5 6 6 6 7 8 9 11 11 11 10 9 8 8 8 8 8 8 8 9 10 14 17 16 11 6 4 3 2
1 1 0 0 0 1 1 1 1 1 1 1 2 3 5 7 9 9 10 10 11 14 15 15 13 12 11 9 9 8 8 7 6 8 9 10 11 11 10 7 5 4 4 3
1 1 1 1 1 1 1 1 1 1 1 2 2 3 5 8 9 10 9 9 11 17 19 17 15 13 11 9 8 8 7 6 6 7 8 8 8 8 7 6 6 5 5 4
1 1 1 1 1 1 1 1 1 2 2 3 3 4 5 6 7 6 6 5 8 14 19 18 15 13 11 9 7 6 6 7 7 7 6 6 7 8 8 7 7 6 5 5
1 1 2 2 3 2 2 3 3 3 4 4 4 4 5 5 5 4 3 3 4 8 13 14 13 12 11 8 7 7 7 8 8 7 6 5 6 7 7 8 7 6 6 5
1 1 2 2 3 3 4 5 5 5 4 4 4 4 4 4 3 3 2 2 3 5 8 9 9 9 8 8 8 8 8 8 8 8 7 5 5 6 7 7 6 5 5 5
1 1 2 2 2 2 3 5 6 5 4 4 4 3 3 3 3 2 2 2 3 5 6 7 6 6 7 8 8 8 8 8 8 8 7 6 5 6 6 6 5 4 4 4
Wind_Speed
2 1 4 8 7 7 4 3 3 4 4 3 4 6 9 9 9 10 9 10 11 11 9 9 9 9 8 6 6 5 5 4 3 2 2 2 1 1 1 1 2 3 3 3
2 6 11 7 5 4 3 3 3 2 2 3 3 4 7 9 11 11 11 11 11 10 8 9 9 8 8 8 7 6 5 5 4 3 3 2 2 1 1 1 1 2 3 3
7 10 7 5 5 3 4 4 5 4 1 2 4 2 1 3 4 6 8 10 10 13 13 11 11 9 8 8 8 7 6 6 4 4 2 2 1 1 1 1 1 1 3 3
6 8 5 5 6 5 5 5 5 4 2 2 3 1 5 4 4 5 7 9 9 10 10 11 10 10 9 8 7 6 6 6 5 5 4 4 4 3 3 2 2 2 2 3
6 4 4 5 7 5 6 5 5 4 3 1 1 3 5 1 3 5 7 10 10 10 12 12 12 11 9 8 7 6 6 6 5 5 5 5 4 3 2 2 2 2 1 2
7 5 4 6 6 5 4 2 4 4 4 1 3 3 5 4 8 7 7 9 11 11 10 10 9 8 7 7 7 6 6 5 5 5 5 5 5 4 3 3 3 2 1 1
6 7 6 3 3 4 3 6 4 5 4 4 3 2 7 7 7 8 9 9 10 11 10 10 10 9 9 9 8 7 7 6 5 5 5 5 5 5 5 4 4 3 2 2
3 7 5 2 4 4 3 8 8 5 4 4 2 3 6 5 5 5 6 7 9 9 10 11 11 11 10 10 9 9 8 7 6 6 5 4 4 4 3 4 3 4 3 3
5 7 5 3 2 6 2 2 7 7 2 1 3 3 5 1 2 3 5 6 8 10 11 11 11 11 10 10 10 10 9 7 7 6 5 4 4 4 4 4 3 3 2 3
7 4 6 4 2 2 5 5 5 5 3 2 3 3 4 3 2 2 4 6 7 7 8 9 10 10 9 9 8 9 9 8 7 7 6 5 4 4 4 4 4 4 3 3
5 4 5 3 1 2 1 3 4 4 5 5 3 6 6 7 5 5 5 5 5 7 9 9 9 9 9 8 8 8 9 8 7 7 6 5 4 4 4 4 4 4 3 3
3 6 2 5 4 4 4 4 6 5 3 4 4 7 5 6 5 5 5 4 4 6 6 7 7 8 8 9 9 8 8 8 8 7 6 5 4 4 4 4 3 3 3 3
4 6 2 7 7 5 2 1 4 5 4 3 3 7 3 2 4 4 5 5 4 4 5 6 6 6 7 8 8 8 7 7 7 7 6 5 5 4 4 4 3 3 3 2
6 5 6 7 6 2 2 3 1 4 3 3 5 5 4 2 4 4 5 5 4 4 5 5 6 5 6 6 6 7 6 6 7 7 7 7 6 6 5 4 4 4 3 3
6 3 2 3 2 0 1 2 1 2 6 6 6 6 6 6 6 5 4 4 4 4 5 5 5 5 5 5 5 6 6 6 6 6 7 6 5 5 4 4 4 4 4 4
4 3 2 3 3 2 2 3 3 2 1 3 3 4 5 3 2 1 2 4 4 3 4 5 5 5 5 6 5 5 6 6 6 6 6 5 5 5 5 4 4 3 4 3
1 4 3 2 3 4 2 2 0 0 1 2 3 5 2 1 2 3 3 3 4 3 3 4 5 5 5 6 5 5 5 6 6 6 5 5 5 5 5 5 4 4 4 3
5 4 3 1 3 3 7 2 3 3 2 2 1 1 2 3 3 2 2 3 3 3 3 3 4 4 4 4 5 5 5 5 6 6 5 5 4 4 4 4 4 4 3 3
6 7 4 3 2 4 5 3 1 2 1 2 1 1 1 2 2 2 1 2 3 4 3 3 4 4 3 3 4 5 4 5 5 5 5 5 4 4 4 4 4 4 3 3
4 6 5 3 3 4 5 6 2 4 1 3 1 0 1 2 1 3 2 2 2 2 2 2 2 3 3 3 4 5 4 4 4 4 5 5 5 5 4 4 4 3 3 3
4 3 3 3 3 4 5 5 4 3 4 4 1 1 1 2 4 4 1 0 1 2 2 3 3 3 2 2 4 4 4 4 3 3 3 3 4 4 4 3 3 2 2 2
2 2 2 2 2 5 4 3 2 4 3 1 1 2 2 0 1 1 2 2 2 2 2 3 3 3 2 3 4 4 3 3 2 3 2 2 3 4 4 4 3 2 3 2
2 5 5 5 6 6 2 2 3 3 2 0 1 1 2 1 1 1 1 2 1 1 2 2 3 3 2 2 3 3 1 2 2 2 2 2 2 3 3 4 4 3 3 3
4 1 2 0 2 2 1 1 1 1 2 1 2 2 3 2 1 0 1 1 1 1 2 2 3 3 1 1 2 3 2 2 3 2 0 1 1 2 2 2 3 3 3 3
3 1 1 1 3 2 3 1 1 1 2 2 1 1 2 3 2 1 1 2 1 1 1 2 3 2 1 1 1 2 2 3 2 0 1 1 1 2 2 1 2 3 4 5
2 2 3 4 5 3 4 3 1 2 1 0 1 1 1 2 2 1 1 2 2 2 2 2 2 2 1 1 1 0 1 2 2 1 1 1 1 2 2 1 1 3 3 5
Wind_Direction
272 81 244 236 217 210 209 210 237 245 220 147 158 165 179 180 173 175 175 175 175 180 178 168 164 161 157 152 154 164 169 174 160 152 155 155 174 183 160 163 154 151 149 149
356 256 240 237 247 228 204 215 252 272 217 157 163 177 184 179 183 182 179 180 179 173 166 167 165 163 164 165 168 170 173 174 177 176 174 169 169 175 161 143 137 145 144 150
216 243 235 234 255 245 251 202 211 205 295 44 97 17 236 195 172 178 180 178 177 176 174 173 171 172 168 171 175 177 180 176 174 166 144 131 96 63 78 104 139 154 146 142
246 253 241 231 240 212 247 222 186 182 148 249 129 175 263 200 191 192 187 178 180 179 171 172 172 172 174 178 175 173 175 173 172 162 155 155 161 175 195 184 171 159 151 153
256 260 242 234 232 204 225 212 182 186 159 73 27 124 272 176 191 209 196 187 184 181 177 177 176 175 173 172 171 170 165 173 175 169 168 168 173 180 172 156 154 166 177 173
255 266 234 228 247 225 208 65 33 44 69 16 250 156 255 221 206 199 188 190 186 180 176 172 169 164 166 169 168 166 164 173 176 171 168 171 174 169 155 158 167 181 198 199
299 294 278 243 288 306 94 89 33 360 8 262 263 151 237 232 204 189 180 188 184 176 172 168 167 167 170 171 171 168 168 172 174 170 172 175 177 173 173 175 176 177 186 202
237 283 270 238 194 210 195 137 154 191 221 271 319 233 255 238 197 186 177 178 173 171 172 174 176 173 174 173 172 171 174 175 174 172 177 178 177 175 181 183 179 184 194 198
192 251 273 247 202 154 166 177 169 145 181 252 276 268 303 296 141 168 176 172 176 178 178 176 177 176 175 176 176 176 176 177 179 179 175 176 177 174 177 179 174 182 194 188
170 236 284 274 24 25 160 158 94 107 151 245 277 262 239 249 224 187 178 187 191 181 180 181 178 178 176 177 174 172 174 181 184 183 184 183 187 184 184 181 179 183 189 184
153 172 296 353 159 203 54 73 106 121 151 162 230 264 232 202 192 184 187 197 190 181 182 184 181 176 171 170 173 175 177 176 179 183 184 182 184 184 181 184 191 190 187 184
164 134 240 266 259 192 153 160 139 146 220 172 177 257 258 187 183 169 173 184 175 168 176 174 175 172 171 175 178 180 180 182 184 183 178 180 181 178 179 186 185 175 178 183
131 114 83 338 340 352 40 105 142 135 130 153 172 259 290 166 166 168 170 177 160 148 149 154 162 170 177 178 178 181 181 180 182 179 177 178 181 182 188 191 179 170 174 177
108 108 154 191 221 244 309 309 153 120 153 205 210 232 284 253 207 197 182 176 156 144 149 154 164 170 173 173 177 181 185 180 177 179 180 182 188 189 192 191 180 177 174 182
87 105 165 211 230 78 319 304 291 203 193 191 221 205 230 227 209 202 181 154 143 143 144 151 164 170 173 176 182 185 189 188 180 181 188 190 189 186 182 185 182 178 180 190
67 109 64 352 332 11 337 326 318 285 222 192 167 228 237 226 168 155 167 146 138 150 160 160 165 167 173 173 184 188 186 183 173 179 191 186 181 182 184 185 181 179 194 199
78 106 93 280 312 24 313 278 268 326 327 160 190 234 242 169 179 189 173 144 145 155 161 170 174 173 179 181 183 191 187 174 171 183 186 180 176 181 187 185 181 190 196 190
143 111 125 144 42 248 243 259 108 100 38 44 98 232 178 175 182 161 137 145 157 162 165 175 178 175 178 181 177 177 175 169 173 179 177 174 168 177 183 183 188 195 188 185
151 139 125 124 170 272 300 319 121 132 320 348 40 8 13 112 80 26 254 180 181 178 176 170 166 169 165 171 168 151 154 154 157 170 176 176 179 183 185 192 202 202 185 190
76 111 120 129 164 225 260 291 283 103 344 320 45 174 181 94 98 256 259 227 185 155 147 130 116 116 133 154 146 135 140 142 163 181 184 182 181 187 193 197 198 192 186 202
31 51 113 158 200 246 266 310 39 97 247 306 352 127 142 191 213 223 191 145 139 114 108 110 104 112 133 139 133 139 148 168 190 182 171 170 176 186 199 200 200 190 190 195
151 127 168 146 179 251 299 25 110 207 237 283 53 57 36 350 90 86 91 81 96 101 102 111 108 101 97 111 122 133 160 179 159 145 145 168 179 187 189 193 204 200 193 197
172 185 181 179 206 234 247 179 211 184 153 98 83 117 116 89 110 118 108 102 109 120 113 113 112 102 82 99 121 130 141 125 122 127 150 187 198 198 186 188 195 199 199 201
310 37 106 53 271 254 270 74 56 95 129 134 129 118 116 133 163 149 152 139 133 114 114 115 111 112 96 72 111 132 131 114 106 117 174 233 223 224 211 204 199 198 204 206
267 9 64 280 277 332 349 7 79 49 65 76 86 132 143 128 139 164 154 144 156 142 108 115 123 130 124 110 116 139 133 114 106 100 269 256 242 233 226 227 229 217 216 205
246 177 161 220 236 197 261 270 151 110 118 158 116 66 94 130 141 142 151 155 156 161 131 121 127 139 141 123 114 221 184 144 140 164 258 251 242 243 227 214 294 312 258 238